sat.trackr.live / text

‹ back to catalog

HULIANWANG DIGUI-127

NORAD 67067 · 2025-295J

PAYLOAD ACTIVE UNKNOWN

§ Identity

Operator
Country
PRC
Launch date
2025-12-11
Launch site
WSC
Launch vehicle
Mass (kg)
RCS (m²)

External: N2YO · Heavens-Above · Gunter

§ Orbital elements

Epoch: 2026-05-25T03:50:26.746656Z

Period
108.33 min
Inclination
49.9997°
Eccentricity
0.0000858
Mean motion
13.29327470 rev/d
Perigee alt
1,148.7 km
Apogee alt
1,149.9 km
Semi-major
7,527.4 km
B*
9.3663e-5
RAAN
107.7402°
Arg perigee
353.8492°
Mean anomaly
6.2369°
Rev number
2,244

§ Raw data

HULIANWANG DIGUI-1271 67067U 25295J   26145.16003179 -.00000081  00000+0  93663-4 0  99942 67067  49.9997 107.7402 0000858 353.8492   6.2369 13.29327470 22447

JSON: /api/v1/satellites/67067 · /tle

For live sub-satellite position, see the globe view (requires WebGL).

§ Visibility from observer

Set your observer location to see the next 7 days of passes ≥ 10°. The values pass through the URL so the page stays shareable.

No JS? Fill the form by hand. The geolocation button needs JavaScript.